Flight Information

DEPARTURE
HAILEY, ID
Elevation:
5319
Runways:
13/31 - 7550x100 - ASPH-G
Active PE Departure:
13
Current PE ATIS:
F
Altimeter:
30.06
Remarks:
ATIS:
128.225 208-788-2108
Ground:
121.7
Tower:
HAILEY TOWER 125.6
DESTINATION
,
Elevation:
TPA:
1000 (est.)


6441.6 NM73° True-17° Var56° HDG

Flight Plan:
(click to file on line)

1. Type
2. Aircraft Identification
3. Aircraft Type / Special Equipment
4. True Airspeed
kts
5. Departure Airport
(ICAO code)
6. Arriving Airport
(ICAO code)
7. Cruising Altitude
ft
8. Alternate Airport
(ICAO code)
9. Route of Flight
10. Remarks


00:00:00 Departure ATIS: Destination ATIS:

Clearance Limit:
Route:
Altitude: Expect in minutes
Frequency:
Transponder: (7500 Hijack / 7600 Lost Comms / 7700 Emergency)


KSUN 100615Z AUTO 32009KT 10SM OVC060 M08/M12 A3006 RMK AO2
Time: 2022-12-10T06:15:00Z
1670654178
Winds: 320 @ 9 kts
Visibility: 10.0 sm
Clouds (AGL): OVC 6000
Temperature: -8.0 C
Dew Point: -12.0 C
Pressure: 30.059055 in Hgbr


Notes:

Data extracted from FAA Digital Chart Supplement. Effective: 0901Z Thursday, 27 JAN 2022 to 0900z Thursday, 24 MAR 2022
Current ATIS data is provided courtisy of PilotEdge.